Weather History for Walnut Ridge, AR

Change the Weather History Date:

Wednesday, June 26, 2013

  Actual Average Record
Temperature  
Mean Temperature 85 °F -  
Max Temperature 93 °F 85 °F 96 °F (2011)
Min Temperature 77 °F 67 °F 64 °F (2001)
Cooling Degree Days 20    
Growing Degree Days 35 (Base 50)    
Moisture  
Dew Point 73 °F    
Average Humidity 68    
Maximum Humidity 89    
Minimum Humidity 49    
Precipitation  
Precipitation 0.00 in - - ()
Sea Level Pressure  
Sea Level Pressure 29.88 in    
Wind  
Wind Speed 13 mph (SSW)    
Max Wind Speed 24 mph    
Max Gust Speed 30 mph    
Visibility 10 miles    
Events Thunderstorm    
Averages and records for this station are not official NWS values.
T = Trace of Precipitation, MM = Missing Value Source: NWS Daily Summary

Daily Weather History Graph

Daily Weather History Graph

Search for Another Location

Airport:

Trip Planner

Search our weather history database for the weather conditions in past years. The results will help you decide how hot, cold, wet, or windy it might be!

Date:

Astronomy

Jun. 26, 2013 Rise Set
Actual Time 5:48 AM CDT 8:24 PM CDT
Civil Twilight 5:18 AM CDT 8:55 PM CDT
Nautical Twilight 4:40 AM CDT 9:32 PM CDT
Astronomical Twilight 3:58 AM CDT 10:14 PM CDT
Moon 10:56 PM CDT (6/26) 9:33 AM CDT (6/26)
Length of Visible Light 15h 37m
Length of Day
14h 36m
Waning Gibbous, 85% of the Moon is Illuminated
Jun 26
Waning Gibbous
Jun 29
Last Quarter
Jul 8
New
Jul 15
First Quarter
Jul 22
Full

Hourly Weather History & Observations

Time (CDT) Temp. Heat Index Dew Point Humidity Pressure Visibility Wind Dir Wind Speed Gust Speed Precip Events Conditions
12:15 AM 80.6 °F 84.6 °F 71.6 °F 74% 29.93 in 10.0 mi South 9.2 mph - N/A   Clear
12:35 AM 78.8 °F - 71.6 °F 78% 29.93 in 10.0 mi SSW 8.1 mph - N/A   Clear
12:56 AM 78.8 °F - 71.6 °F 78% 29.93 in 10.0 mi South 6.9 mph - N/A   Clear
1:15 AM 78.8 °F - 71.6 °F 78% 29.93 in 10.0 mi South 5.8 mph - N/A   Clear
1:35 AM 78.8 °F - 71.6 °F 78% 29.92 in 10.0 mi South 9.2 mph - N/A   Clear
1:55 AM 77.0 °F - 71.6 °F 83% 29.92 in 10.0 mi South 8.1 mph - N/A   Clear
2:15 AM 77.0 °F - 71.6 °F 83% 29.91 in 10.0 mi South 8.1 mph - N/A   Clear
2:35 AM 77.0 °F - 71.6 °F 83% 29.91 in 10.0 mi South 9.2 mph - N/A   Clear
2:55 AM 77.0 °F - 71.6 °F 83% 29.90 in 10.0 mi South 10.4 mph - N/A   Clear
3:16 AM 77.0 °F - 71.6 °F 83% 29.90 in 10.0 mi South 15.0 mph - N/A   Clear
3:35 AM 77.0 °F - 71.6 °F 83% 29.89 in 10.0 mi South 13.8 mph - N/A   Clear
3:55 AM 77.0 °F - 71.6 °F 83% 29.89 in 10.0 mi South 12.7 mph - N/A   Clear
4:15 AM 77.0 °F - 71.6 °F 83% 29.89 in 10.0 mi South 12.7 mph - N/A   Clear
4:35 AM 77.0 °F - 71.6 °F 83% 29.90 in 10.0 mi South 13.8 mph - N/A   Clear
4:55 AM 78.8 °F - 71.6 °F 78% 29.90 in 10.0 mi South 12.7 mph - N/A   Clear
5:16 AM 77.0 °F - 71.6 °F 83% 29.90 in 10.0 mi South 13.8 mph - N/A   Clear
5:35 AM 77.0 °F - 73.4 °F 89% 29.91 in 10.0 mi South 12.7 mph - N/A   Clear
5:55 AM 77.0 °F - 73.4 °F 89% 29.91 in 10.0 mi South 13.8 mph - N/A   Clear
6:35 AM 78.8 °F - 73.4 °F 83% 29.92 in 10.0 mi South 16.1 mph 20.7 mph N/A   Clear
6:55 AM 78.8 °F - 73.4 °F 83% 29.92 in 10.0 mi South 13.8 mph - N/A   Clear
7:15 AM 78.8 °F - 73.4 °F 83% 29.92 in 10.0 mi SSW 16.1 mph - N/A   Clear
7:35 AM 80.6 °F 85.4 °F 73.4 °F 79% 29.91 in 10.0 mi South 19.6 mph 24.2 mph N/A   Clear
7:55 AM 80.6 °F 85.4 °F 73.4 °F 79% 29.91 in 10.0 mi South 19.6 mph - N/A   Clear
8:15 AM 80.6 °F 85.4 °F 73.4 °F 79% 29.91 in 10.0 mi South 17.3 mph 25.3 mph N/A   Clear
8:35 AM 82.4 °F 88.2 °F 73.4 °F 74% 29.91 in 10.0 mi SSW 21.9 mph - N/A   Clear
8:55 AM 82.4 °F 88.2 °F 73.4 °F 74% 29.92 in 10.0 mi SSW 18.4 mph - N/A   Clear
9:15 AM 82.4 °F 88.2 °F 73.4 °F 74% 29.91 in 10.0 mi SSW 19.6 mph 26.5 mph N/A   Clear
9:36 AM 84.2 °F 90.9 °F 73.4 °F 70% 29.90 in 10.0 mi SSW 20.7 mph 25.3 mph N/A   Clear
9:55 AM 84.2 °F 90.9 °F 73.4 °F 70% 29.89 in 10.0 mi SSW 20.7 mph 25.3 mph N/A   Clear
10:15 AM 84.2 °F 90.9 °F 73.4 °F 70% 29.90 in 10.0 mi SSW 20.7 mph 24.2 mph N/A   Clear
10:35 AM 82.4 °F 88.2 °F 73.4 °F 74% 29.92 in 10.0 mi SSW 15.0 mph - N/A Thunderstorm Clear
10:55 AM 82.4 °F 88.2 °F 73.4 °F 74% 29.93 in 10.0 mi WSW 15.0 mph - N/A   Clear
11:15 AM 82.4 °F 88.2 °F 73.4 °F 74% 29.91 in 10.0 mi SSW 11.5 mph - N/A   Clear
11:35 AM 84.2 °F 90.9 °F 73.4 °F 70% 29.91 in 10.0 mi South 13.8 mph - N/A   Clear
11:55 AM 87.8 °F 93.8 °F 71.6 °F 58% 29.91 in 10.0 mi SSW 20.7 mph - N/A   Clear
12:15 PM 89.6 °F 96.2 °F 71.6 °F 55% 29.90 in 10.0 mi SSW 24.2 mph 29.9 mph N/A   Clear
12:36 PM 89.6 °F 96.2 °F 71.6 °F 55% 29.90 in 10.0 mi SSW 24.2 mph - N/A   Clear
12:55 PM 89.6 °F 96.2 °F 71.6 °F 55% 29.90 in 10.0 mi SW 20.7 mph 25.3 mph N/A   Clear
1:15 PM 91.4 °F 98.4 °F 71.6 °F 52% 29.90 in 10.0 mi SW 21.9 mph - N/A   Clear
1:35 PM 91.4 °F 98.4 °F 71.6 °F 52% 29.89 in 10.0 mi SW 19.6 mph 26.5 mph N/A   Clear
1:55 PM 91.4 °F 98.4 °F 71.6 °F 52% 29.89 in 10.0 mi SSW 18.4 mph 25.3 mph N/A   Clear
2:15 PM 91.4 °F 100.1 °F 73.4 °F 55% 29.88 in 10.0 mi SSW 18.4 mph 24.2 mph N/A   Clear
2:35 PM 93.2 °F 102.4 °F 73.4 °F 52% 29.87 in 10.0 mi SW 17.3 mph 23.0 mph N/A   Clear
2:55 PM 93.2 °F 100.5 °F 71.6 °F 49% 29.86 in 10.0 mi SW 19.6 mph 25.3 mph N/A   Clear
3:15 PM 93.2 °F 102.4 °F 73.4 °F 52% 29.85 in 10.0 mi SW 13.8 mph 19.6 mph N/A   Clear
3:35 PM 93.2 °F 102.4 °F 73.4 °F 52% 29.84 in 10.0 mi WSW 19.6 mph 25.3 mph N/A   Clear
3:55 PM 93.2 °F 100.5 °F 71.6 °F 49% 29.84 in 10.0 mi WSW 15.0 mph - N/A   Clear
4:15 PM 93.2 °F 100.5 °F 71.6 °F 49% 29.84 in 10.0 mi SW 18.4 mph 23.0 mph N/A   Clear
4:35 PM 93.2 °F 100.5 °F 71.6 °F 49% 29.83 in 10.0 mi SW 17.3 mph 25.3 mph N/A   Clear
4:56 PM 93.2 °F 100.5 °F 71.6 °F 49% 29.83 in 10.0 mi SW 21.9 mph - N/A   Clear
5:15 PM 93.2 °F 100.5 °F 71.6 °F 49% 29.82 in 10.0 mi SW 18.4 mph 24.2 mph N/A   Clear
5:35 PM 93.2 °F 100.5 °F 71.6 °F 49% 29.82 in 10.0 mi SW 17.3 mph - N/A   Clear
5:56 PM 93.2 °F 102.4 °F 73.4 °F 52% 29.82 in 10.0 mi SSW 17.3 mph - N/A   Clear
6:15 PM 93.2 °F 102.4 °F 73.4 °F 52% 29.82 in 10.0 mi SW 17.3 mph - N/A   Clear
6:35 PM 91.4 °F 100.1 °F 73.4 °F 55% 29.82 in 10.0 mi SW 16.1 mph - N/A   Clear
6:56 PM 91.4 °F 100.1 °F 73.4 °F 55% 29.83 in 10.0 mi SW 12.7 mph - N/A   Clear
7:15 PM 91.4 °F 100.1 °F 73.4 °F 55% 29.83 in 10.0 mi SW 11.5 mph - N/A   Clear
7:35 PM 89.6 °F 98.2 °F 73.4 °F 59% 29.82 in 10.0 mi SW 12.7 mph - N/A   Clear
7:55 PM 89.6 °F 98.2 °F 73.4 °F 59% 29.81 in 10.0 mi SW 12.7 mph - N/A   Clear
8:15 PM 87.8 °F 95.6 °F 73.4 °F 62% 29.82 in 10.0 mi SSW 10.4 mph - N/A   Clear
8:35 PM 87.8 °F 95.6 °F 73.4 °F 62% 29.82 in 10.0 mi SSW 11.5 mph - N/A   Clear
8:55 PM 87.8 °F 95.6 °F 73.4 °F 62% 29.82 in 10.0 mi SSW 13.8 mph - N/A   Clear
9:15 PM 87.8 °F 95.6 °F 73.4 °F 62% 29.82 in 10.0 mi SSW 12.7 mph - N/A   Clear
9:35 PM 86.0 °F 93.4 °F 73.4 °F 66% 29.83 in 10.0 mi SSW 13.8 mph - N/A   Clear
9:55 PM 86.0 °F 93.4 °F 73.4 °F 66% 29.83 in 10.0 mi SSW 15.0 mph - N/A   Clear
10:16 PM 84.2 °F 90.9 °F 73.4 °F 70% 29.84 in 10.0 mi SSW 12.7 mph - N/A   Clear
10:35 PM 84.2 °F 90.9 °F 73.4 °F 70% 29.84 in 10.0 mi SW 16.1 mph - N/A   Clear
10:55 PM 84.2 °F 90.9 °F 73.4 °F 70% 29.83 in 10.0 mi SW 16.1 mph - N/A   Clear
11:15 PM 82.4 °F 88.2 °F 73.4 °F 74% 29.84 in 10.0 mi SW 16.1 mph - N/A   Clear
11:35 PM 82.4 °F 89.5 °F 75.2 °F 79% 29.85 in 10.0 mi SW 11.5 mph - N/A   Clear
11:55 PM 82.4 °F 89.5 °F 75.2 °F 79% 29.85 in 10.0 mi SW 9.2 mph - N/A   Clear